Alice, TX

4:50 PM CDT on April 24, 2017 (GMT -0500)
Alice International

Weather History for KALI - February, 2014

Change the Weather History Date:

Monday, February 17, 2014

  Actual Average Record
Temperature  
Mean Temperature 77 °F -  
Max Temperature 88 °F 71 °F 88 °F (2014)
Min Temperature 66 °F 49 °F 33 °F (1997)
Cooling Degree Days 12    
Growing Degree Days 27 (Base 50)    
Moisture  
Dew Point 64 °F    
Average Humidity 74    
Maximum Humidity 90    
Minimum Humidity 39    
Precipitation  
Precipitation 0.00 in - - ()
Sea Level Pressure  
Sea Level Pressure 29.99 in    
Wind  
Wind Speed 11 mph (SSE)    
Max Wind Speed 16 mph    
Max Gust Speed 25 mph    
Visibility 9 miles    
Events      
Averages and records for this station are not official NWS values.
T = Trace of Precipitation, MM = Missing Value Source: NWS Daily Summary

Daily Weather History Graph

Daily Weather History Graph

Search for Another Location

Airport or City:

Trip Planner

Search our weather history database for the weather conditions in past years. The results will help you decide how hot, cold, wet, or windy it might be!

Date:

Astronomy

Feb. 17, 2014 Rise Set
Actual Time 7:07 AM CST 6:24 PM CST
Civil Twilight 6:43 AM CST 6:48 PM CST
Nautical Twilight 6:16 AM CST 7:16 PM CST
Astronomical Twilight 5:49 AM CST 7:43 PM CST
Moon 9:01 PM CST (2/17) 8:26 AM CST (2/17)
Length of Visible Light 12h 04m
Length of Day
11h 17m
Waning Gibbous, 93% of the Moon is Illuminated
Feb 17
Waning Gibbous
Feb 22
Last Quarter
Mar 1
New
Mar 8
First Quarter
Mar 16
Full

Hourly Weather History & Observations

Time (CST) Temp. Heat Index Dew Point Humidity Pressure Visibility Wind Dir Wind Speed Gust Speed Precip Events Conditions
12:53 AM 69.1 °F - 63.0 °F 81% 29.96 in 9.0 mi South 15.0 mph - N/A   Overcast
1:53 AM 68.0 °F - 63.0 °F 84% 29.96 in 9.0 mi South 10.4 mph - N/A   Overcast
2:53 AM 69.1 °F - 64.0 °F 84% 29.94 in 8.0 mi South 9.2 mph 18.4 mph N/A   Overcast
3:53 AM 69.1 °F - 64.0 °F 84% 29.94 in 9.0 mi South 11.5 mph - N/A   Overcast
4:53 AM 69.1 °F - 64.0 °F 84% 29.94 in 9.0 mi South 6.9 mph 17.3 mph N/A   Overcast
5:53 AM 69.1 °F - 64.0 °F 84% 29.95 in 8.0 mi South 11.5 mph - N/A   Overcast
6:53 AM 69.1 °F - 63.0 °F 81% 29.96 in 9.0 mi South 11.5 mph 21.9 mph N/A   Mostly Cloudy
7:25 AM 66.2 °F - 62.6 °F 88% 29.96 in 7.0 mi South 10.4 mph - N/A   Scattered Clouds
7:53 AM 66.9 °F - 63.0 °F 87% 29.98 in 7.0 mi South 6.9 mph - N/A   Clear
8:53 AM 71.1 °F - 64.0 °F 78% 30.00 in 9.0 mi South 8.1 mph 16.1 mph N/A   Mostly Cloudy
9:12 AM 71.6 °F - 62.6 °F 73% 30.01 in 9.0 mi South 15.0 mph 20.7 mph N/A   Overcast
9:53 AM 73.9 °F - 63.0 °F 68% 30.01 in 10.0 mi South 15.0 mph 23.0 mph N/A   Mostly Cloudy
10:02 AM 75.2 °F - 62.6 °F 65% 30.01 in 10.0 mi South 15.0 mph 23.0 mph N/A   Scattered Clouds
10:53 AM 79.0 °F - 63.0 °F 58% 30.00 in 10.0 mi SSW 16.1 mph 24.2 mph N/A   Clear
11:53 AM 81.0 °F 82.2 °F 63.0 °F 54% 30.01 in 10.0 mi South 9.2 mph 17.3 mph N/A   Partly Cloudy
12:53 PM 84.9 °F 85.9 °F 63.0 °F 48% 29.97 in 10.0 mi SSW 6.9 mph - N/A   Clear
1:53 PM 86.0 °F 86.3 °F 62.1 °F 44% 29.95 in 10.0 mi Calm Calm - N/A   Scattered Clouds
2:53 PM 88.0 °F 87.9 °F 61.0 °F 40% 29.92 in 10.0 mi South 5.8 mph - N/A   Clear
3:53 PM 88.0 °F 87.6 °F 60.1 °F 39% 29.93 in 10.0 mi Calm Calm - N/A   Partly Cloudy
4:53 PM 82.9 °F 84.4 °F 64.0 °F 53% 29.94 in 10.0 mi SE 16.1 mph - N/A   Clear
5:53 PM 75.9 °F - 63.0 °F 64% 29.97 in 10.0 mi ESE 16.1 mph 25.3 mph N/A   Clear
6:53 PM 72.0 °F - 64.0 °F 76% 30.00 in 10.0 mi SE 16.1 mph 24.2 mph N/A   Clear
7:50 PM 69.8 °F - 66.2 °F 88% 30.03 in 10.0 mi SE 12.7 mph 19.6 mph N/A   Mostly Cloudy
7:53 PM 70.0 °F - 66.0 °F 87% 30.03 in 10.0 mi SE 15.0 mph 19.6 mph N/A   Mostly Cloudy
8:23 PM 69.8 °F - 66.2 °F 88% 30.05 in 10.0 mi SE 13.8 mph - N/A   Mostly Cloudy
8:53 PM 69.1 °F - 66.0 °F 90% 30.06 in 10.0 mi SE 10.4 mph - N/A   Mostly Cloudy
9:53 PM 69.1 °F - 66.0 °F 90% 30.08 in 10.0 mi ESE 6.9 mph - N/A   Overcast
10:53 PM 69.1 °F - 66.0 °F 90% 30.07 in 10.0 mi SE 9.2 mph - N/A   Overcast
11:53 PM 69.1 °F - 66.0 °F 90% 30.06 in 10.0 mi SE 8.1 mph - N/A   Overcast